Corpus Christi, TX

3:36 AM CDT on April 23, 2018 (GMT -0500)
Corpus Christi International

Weather History for KCRP - April, 2013

Change the Weather History Date:

Saturday, April 20, 2013

  Actual Average Record
Temperature  
Mean Temperature 62 °F 73 °F  
Max Temperature 76 °F 83 °F 89 °F (1984)
Min Temperature 47 °F 64 °F 47 °F (1980)
Degree Days  
Heating Degree Days 3 0  
Month to date heating degree days 9 15  
Since 1 July heating degree days 525 896  
Cooling Degree Days 0 9  
Month to date cooling degree days 158 142  
Year to date cooling degree days 459 333  
Growing Degree Days 10 (Base 50)    
Moisture  
Dew Point 42 °F    
Average Humidity 52    
Maximum Humidity 76    
Minimum Humidity 27    
Precipitation  
Precipitation 0.00 in 0.06 in 1.92 in (1945)
Month to date precipitation 0.17 1.16  
Year to date precipitation 1.92 6.52  
Snow  
Snow 0.00 in - - ()
Month to date snowfall 0.0  
Since 1 July snowfall 0.0  
Snow Depth 0.00 in    
Sea Level Pressure  
Sea Level Pressure 30.15 in    
Wind  
Wind Speed 10 mph (East)    
Max Wind Speed 21 mph    
Max Gust Speed 26 mph    
Visibility 10 miles    
Events      
T = Trace of Precipitation, MM = Missing Value Source: NWS Daily Summary

Daily Weather History Graph

Daily Weather History Graph

Search for Another Location

Airport or City:

Astronomy

Apr. 20, 2013 Rise Set
Actual Time 7:00 AM CDT 7:58 PM CDT
Civil Twilight 6:35 AM CDT 8:22 PM CDT
Nautical Twilight 6:07 AM CDT 8:50 PM CDT
Astronomical Twilight 5:37 AM CDT 9:20 PM CDT
Moon 3:09 PM CDT (4/20) 3:22 AM CDT (4/20)
Length of Visible Light 13h 46m
Length of Day
12h 58m
Waxing Gibbous, 71% of the Moon is Illuminated
Apr 20
Waxing Gibbous
Apr 25
Full
May 2
Last Quarter
May 9
New
May 17
First Quarter

Hourly Weather History & Observations

Time (CDT) Temp. Dew Point Humidity Pressure Visibility Wind Dir Wind Speed Gust Speed Precip Events Conditions
12:51 AM 52.0 °F 39.0 °F 61% 30.22 in 10.0 mi SE 4.6 mph - N/A   Clear
1:51 AM 48.0 °F 34.0 °F 58% 30.21 in 10.0 mi South 4.6 mph - N/A   Clear
2:51 AM 48.9 °F 36.0 °F 61% 30.20 in 10.0 mi SW 3.5 mph - N/A   Clear
3:51 AM 46.9 °F 37.9 °F 71% 30.20 in 10.0 mi NNW 3.5 mph - N/A   Clear
4:51 AM 51.1 °F 39.9 °F 66% 30.19 in 10.0 mi WNW 3.5 mph - N/A   Clear
5:51 AM 46.9 °F 37.0 °F 68% 30.19 in 10.0 mi North 8.1 mph - N/A   Clear
6:51 AM 46.9 °F 39.9 °F 77% 30.19 in 10.0 mi North 5.8 mph - N/A   Clear
7:51 AM 55.0 °F 44.1 °F 67% 30.19 in 10.0 mi North 6.9 mph - N/A   Clear
8:51 AM 63.0 °F 45.0 °F 52% 30.21 in 10.0 mi NE 6.9 mph - N/A   Clear
9:51 AM 69.1 °F 41.0 °F 36% 30.21 in 10.0 mi East 12.7 mph - N/A   Clear
10:51 AM 71.1 °F 37.9 °F 30% 30.21 in 10.0 mi East 11.5 mph - N/A   Clear
11:51 AM 73.0 °F 37.9 °F 28% 30.20 in 10.0 mi East 12.7 mph - N/A   Clear
12:51 PM 73.9 °F 39.9 °F 29% 30.17 in 10.0 mi East 11.5 mph - N/A   Clear
1:51 PM 75.0 °F 39.9 °F 28% 30.15 in 10.0 mi ESE 13.8 mph 23.0 mph N/A   Clear
2:51 PM 75.0 °F 41.0 °F 29% 30.12 in 10.0 mi East 13.8 mph - N/A   Clear
3:51 PM 75.0 °F 44.1 °F 33% 30.09 in 10.0 mi East 13.8 mph 21.9 mph N/A   Partly Cloudy
4:51 PM 75.0 °F 43.0 °F 32% 30.06 in 10.0 mi ESE 16.1 mph - N/A   Partly Cloudy
5:51 PM 73.0 °F 44.1 °F 35% 30.05 in 10.0 mi ESE 16.1 mph 24.2 mph N/A   Partly Cloudy
6:51 PM 71.1 °F 46.0 °F 41% 30.04 in 10.0 mi SE 16.1 mph - N/A   Partly Cloudy
7:51 PM 69.1 °F 48.0 °F 47% 30.05 in 10.0 mi SE 17.3 mph - N/A   Scattered Clouds
8:51 PM 66.9 °F 48.9 °F 52% 30.07 in 10.0 mi ESE 10.4 mph - N/A   Partly Cloudy
9:51 PM 66.0 °F 51.1 °F 59% 30.08 in 10.0 mi ESE 10.4 mph - N/A   Partly Cloudy
10:51 PM 64.9 °F 51.1 °F 61% 30.09 in 10.0 mi ESE 10.4 mph - N/A   Partly Cloudy
11:51 PM 64.9 °F 52.0 °F 63% 30.06 in 10.0 mi SE 12.7 mph - N/A   Partly Cloudy